Volver al catálogo

ARIANE 1 DEB

ActivoHEO
NORAD 25823·DEBRIS·🇫🇷 France

Lanzado Mar 5, 1984 desde Guiana Space Centre

Loading…

Próximos Pases (próximas 24 horas)

TLE

ActualizadoSource: Space-Track

Época: Sep 14, 2026, 12:37 UTC

1 25823U 84023E   26257.52590869 -.00000675  00000-0 -10908-1 0  9992
2 25823   8.0379  85.1842 6811766  67.9520  51.1879  2.62261714 23019

Sigue ARIANE 1 DEB en tiempo real con AllMySat

Download on the App Store